EUTELSAT 174A

Last updated on Fri Dec 19 2025 00:02:49 GMT+0000 (Coordinated Universal Time)

1 28924U 05052A 25352.55217925 .00000031 00000+0 00000+0 0 9992 2 28924 3.7612 78.7856 0005806 191.1932 190.2463 1.00269456 50522
UTC large
Height (km)
Speed (km/s)
/
Latitude / Longitude
Inclination (degrees)
Orbital Period (minutes)
Azimuth
Elevation
Range (km)
Doppler Factor

Next 0 passes for location: London (51.5072 / 0.1276)

Sorry there are no passes over London.